Location: Unspecified
(35.6961°N, 0.0000°E)
Time: 14:10:46
(UTC+00:00)

S-56A Canister/Altair - Pass Details

Date: 05 June 2019
Orbit: 633 x 2499 km, 38.9° (Epoch: 25 June)

Event Time Altitude Azimuth Distance (km) Brightness Sun altitude
Rises 20:44:49 0° 237° (WSW) 3,135 10.8 -15.9°
Reaches altitude 10° 20:47:21 10° 233° (SW) 2,100 9.9 -16.2°
Maximum altitude 20:51:52 56° 155° (SSE) 747 7.1 -16.9°
Enters shadow 20:55:27 15° 80° (E) 1,730 9.0 -17.4°
Drops below altitude 10° 20:56:17 10° 77° (ENE) 2,064 - -17.5°
Sets 20:58:46 0° 73° (ENE) 3,074 - -17.9°
